| time (UTC) | temp F | wind direction | speed knots | gust knots | rain 1hr in | rain 24hr in | rain mn in | humidity % | barometer mb |
| 20260510185519 | 82 | 0 | 0.9 | 0.0 | 0.00 | 0.00 | 0.00 | 58 | |
| 20260510184449 | 81 | 0 | 1.7 | 0.0 | 0.00 | 0.00 | 0.00 | 59 | |
| 20260510183419 | 82 | 0 | 4.3 | 0.0 | 0.00 | 0.00 | 0.00 | 59 | |
| 20260510182349 | 82 | 0 | 0.9 | 0.0 | 0.00 | 0.00 | 0.00 | 58 | |
| 20260510181319 | 81 | 0 | 2.6 | 0.0 | 0.00 | 0.00 | 0.00 | 60 | |
| 20260510180249 | 80 | 0 | 1.7 | 0.0 | 0.00 | 0.00 | 0.00 | 61 | |
| 20260510175219 | 78 | 0 | 0.9 | 0.0 | 0.00 | 0.00 | 0.00 | 63 | |
| 20260510174149 | 76 | 0 | 2.6 | 0.0 | 0.00 | 0.00 | 0.00 | 68 | |
| 20260510173119 | 76 | 0 | 2.6 | 0.0 | 0.00 | 0.00 | 0.00 | 68 | |
| 20260510172049 | 75 | 0 | 2.6 | 0.0 | 0.00 | 0.00 | 0.00 | 70 | |
| 20260510171019 | 74 | 0 | 3.5 | 0.0 | 0.00 | 0.00 | 0.00 | 70 | |
| 20260510165949 | 75 | 0 | 2.6 | 0.0 | 0.00 | 0.00 | 0.00 | 69 | |
| 20260510164949 | 77 | 0 | 2.6 | 0.0 | 0.00 | 0.00 | 0.00 | 68 | |
| 20260510163919 | 80 | 0 | 4.3 | 0.0 | 0.00 | 0.00 | 0.00 | 65 | |
| 20260510162849 | 80 | 0 | 1.7 | 0.0 | 0.00 | 0.00 | 0.00 | 57 | |
| 20260510161819 | 77 | 0 | 0.0 | 0.0 | 0.00 | 0.00 | 0.00 | 59 | |
| 20260510160819 | 76 | 0 | 0.0 | 0.0 | 0.00 | 0.00 | 0.00 | 65 | |
| 20260510155749 | 74 | 0 | 0.0 | 0.0 | 0.00 | 0.00 | 0.00 | 69 | |
| 20260510154719 | 73 | 0 | 0.0 | 0.0 | 0.00 | 0.00 | 0.00 | 74 | |
| 20260510153719 | 72 | 0 | 0.0 | 0.0 | 0.00 | 0.00 | 0.00 | 76 | |
| 20260510152649 | 70 | 0 | 0.0 | 0.0 | 0.00 | 0.00 | 0.00 | 78 | |
| 20260510151619 | 70 | 0 | 0.0 | 0.0 | 0.00 | 0.00 | 0.00 | 81 | |
| 20260510150549 | 68 | 0 | 0.0 | 0.0 | 0.00 | 0.00 | 0.00 | 88 | |
| 20260510145519 | 66 | 0 | 0.0 | 0.0 | 0.00 | 0.00 | 0.00 | 93 | |
| 20260510144449 | 63 | 0 | 0.0 | 0.0 | 0.00 | 0.00 | 0.00 | 98 | |
| 20260510143449 | 62 | 0 | 0.0 | 0.0 | 0.00 | 0.00 | 0.00 | 99 | |
| 20260510142419 | 60 | 0 | 0.0 | 0.0 | 0.00 | 0.00 | 0.00 | 99 | |
| 20260510141349 | 59 | 0 | 0.0 | 0.0 | 0.00 | 0.00 | 0.00 | 99 | |
| 20260510140319 | 57 | 0 | 0.0 | 0.0 | 0.00 | 0.00 | 0.00 | 99 | |
| 20260510135319 | 57 | 0 | 0.0 | 0.0 | 0.00 | 0.00 | 0.00 | 99 | |
| 20260510134319 | 56 | 0 | 0.0 | 0.0 | 0.00 | 0.00 | 0.00 | 99 | |
| 20260510133249 | 56 | 0 | 0.0 | 0.0 | 0.00 | 0.00 | 0.00 | 99 | |
| 20260510132219 | 56 | 0 | 0.0 | 0.0 | 0.00 | 0.00 | 0.00 | 99 | |
| 20260510131149 | 56 | 0 | 0.0 | 0.0 | 0.00 | 0.00 | 0.00 | 99 | |
| 20260510130119 | 56 | 0 | 0.0 | 0.0 | 0.00 | 0.00 | 0.00 | 99 | |
| 20260510125049 | 56 | 0 | 0.0 | 0.0 | 0.00 | 0.00 | 0.00 | 99 | |
| 20260510124019 | 56 | 0 | 0.0 | 0.0 | 0.00 | 0.00 | 0.00 | 99 | |
| 20260510122949 | 56 | 0 | 0.0 | 0.0 | 0.00 | 0.00 | 0.00 | 99 | |
| 20260510121919 | 57 | 0 | 0.0 | 0.0 | 0.00 | 0.00 | 0.00 | 99 | |
| 20260510120849 | 57 | 0 | 0.0 | 0.0 | 0.00 | 0.00 | 0.00 | 99 | |
| 20260510115819 | 57 | 0 | 0.0 | 0.0 | 0.00 | 0.00 | 0.00 | 99 | |
| 20260510114749 | 57 | 0 | 0.0 | 0.0 | 0.00 | 0.00 | 0.00 | 99 | |
| 20260510113719 | 58 | 0 | 0.0 | 0.0 | 0.00 | 0.00 | 0.00 | 99 | |
| 20260510112719 | 58 | 0 | 0.0 | 0.0 | 0.00 | 0.00 | 0.00 | 99 | |
| 20260510111649 | 58 | 0 | 0.0 | 0.0 | 0.00 | 0.00 | 0.00 | 99 | |
| 20260510110649 | 58 | 0 | 0.0 | 0.0 | 0.00 | 0.00 | 0.00 | 99 | |
| 20260510105619 | 59 | 0 | 0.0 | 0.0 | 0.00 | 0.00 | 0.00 | 99 | |
| 20260510104549 | 59 | 0 | 0.0 | 0.0 | 0.00 | 0.00 | 0.00 | 99 | |
| 20260510103519 | 58 | 0 | 0.0 | 0.0 | 0.00 | 0.00 | 0.00 | 99 | |
| 20260510102519 | 58 | 0 | 0.0 | 0.0 | 0.00 | 0.00 | 0.00 | 99 | |
| 20260510101449 | 57 | 0 | 0.0 | 0.0 | 0.00 | 0.00 | 0.00 | 99 | |
| 20260510100419 | 57 | 0 | 0.0 | 0.0 | 0.00 | 0.00 | 0.00 | 99 | |
| 20260510095349 | 57 | 0 | 0.0 | 0.0 | 0.00 | 0.00 | 0.00 | 99 | |
| 20260510094319 | 57 | 0 | 0.0 | 0.0 | 0.00 | 0.00 | 0.00 | 99 | |
| 20260510093249 | 58 | 0 | 0.0 | 0.0 | 0.00 | 0.00 | 0.00 | 99 | |
| 20260510092219 | 58 | 0 | 0.0 | 0.0 | 0.00 | 0.00 | 0.00 | 99 | |
| 20260510091149 | 58 | 0 | 0.0 | 0.0 | 0.00 | 0.00 | 0.00 | 99 | |
| 20260510090149 | 58 | 0 | 0.0 | 0.0 | 0.00 | 0.00 | 0.00 | 99 | |
| 20260510085119 | 58 | 0 | 0.0 | 0.0 | 0.00 | 0.00 | 0.00 | 99 | |
| 20260510084049 | 58 | 0 | 0.0 | 0.0 | 0.00 | 0.00 | 0.00 | 99 | |
| 20260510083049 | 58 | 0 | 0.0 | 0.0 | 0.00 | 0.00 | 0.00 | 99 | |
| 20260510082019 | 58 | 0 | 0.0 | 0.0 | 0.00 | 0.00 | 0.00 | 99 | |
| 20260510081019 | 59 | 0 | 0.0 | 0.0 | 0.00 | 0.00 | 0.00 | 99 | |
| 20260510075949 | 59 | 0 | 0.0 | 0.0 | 0.00 | 0.00 | 0.00 | 99 | |
| 20260510074919 | 59 | 0 | 0.0 | 0.0 | 0.00 | 0.00 | 0.00 | 98 | |
| 20260510073919 | 59 | 0 | 0.0 | 0.0 | 0.00 | 0.00 | 0.00 | 99 | |
| 20260510072919 | 59 | 0 | 0.0 | 0.0 | 0.00 | 0.00 | 0.00 | 97 | |
| 20260510071849 | 60 | 0 | 0.0 | 0.0 | 0.00 | 0.00 | 0.00 | 97 | |
| 20260510070849 | 60 | 0 | 0.0 | 0.0 | 0.00 | 0.00 | 0.00 | 98 | |
| 20260510065819 | 60 | 0 | 0.0 | 0.0 | 0.00 | 0.00 | 0.00 | 97 | |
| 20260510064819 | 61 | 0 | 0.0 | 0.0 | 0.00 | 0.00 | 0.00 | 97 | |
| 20260510063749 | 61 | 0 | 0.0 | 0.0 | 0.00 | 0.00 | 0.00 | 95 | |
| 20260510062719 | 61 | 0 | 0.0 | 0.0 | 0.00 | 0.00 | 0.00 | 95 | |
| 20260510061649 | 62 | 0 | 0.0 | 0.0 | 0.00 | 0.00 | 0.00 | 95 | |
| 20260510060619 | 62 | 0 | 0.0 | 0.0 | 0.00 | 0.00 | 0.00 | 94 | |
| 20260510055549 | 63 | 0 | 0.0 | 0.0 | 0.00 | 0.00 | 0.00 | 93 | |
| 20260510054519 | 63 | 0 | 0.0 | 0.0 | 0.00 | 0.00 | 0.00 | 92 | |
| 20260510053449 | 63 | 0 | 0.0 | 0.0 | 0.00 | 0.00 | 0.00 | 90 | |
| 20260510052419 | 64 | 0 | 0.0 | 0.0 | 0.00 | 0.00 | 0.00 | 90 | |
| 20260510051349 | 65 | 0 | 0.0 | 0.0 | 0.00 | 0.00 | 0.00 | 89 | |
| 20260510050319 | 66 | 0 | 0.0 | 0.0 | 0.00 | 0.00 | 0.00 | 86 | |
| 20260510045319 | 66 | 0 | 0.0 | 0.0 | 0.00 | 0.00 | 0.00 | 84 | |
| 20260510044319 | 67 | 0 | 0.0 | 0.0 | 0.00 | 0.00 | 0.00 | 84 | |
| 20260510043249 | 68 | 0 | 0.0 | 0.0 | 0.00 | 0.00 | 0.00 | 81 | |
| 20260510042219 | 69 | 0 | 0.0 | 0.0 | 0.00 | 0.00 | 0.00 | 78 | |
| 20260510041219 | 70 | 0 | 0.0 | 0.0 | 0.00 | 0.00 | 0.00 | 77 | |
| 20260510040149 | 71 | 0 | 0.0 | 0.0 | 0.00 | 0.00 | 0.00 | 74 | |
| 20260510035149 | 72 | 0 | 0.0 | 0.0 | 0.00 | 0.00 | 0.00 | 72 | |
| 20260510034119 | 72 | 0 | 0.9 | 0.0 | 0.00 | 0.00 | 0.00 | 71 | |
| 20260510033049 | 72 | 0 | 0.0 | 0.0 | 0.00 | 0.00 | 0.00 | 71 | |
| 20260510032019 | 74 | 0 | 0.0 | 0.0 | 0.00 | 0.00 | 0.00 | 70 | |
| 20260510031019 | 75 | 0 | 0.0 | 0.0 | 0.00 | 0.00 | 0.00 | 69 | |
| 20260510025949 | 77 | 0 | 0.0 | 0.0 | 0.00 | 0.00 | 0.00 | 67 | |
| 20260510024919 | 78 | 0 | 0.0 | 0.0 | 0.00 | 0.00 | 0.00 | 64 | |
| 20260510023849 | 80 | 0 | 0.0 | 0.0 | 0.00 | 0.00 | 0.00 | 60 | |
| 20260510022819 | 80 | 0 | 1.7 | 0.0 | 0.00 | 0.00 | 0.00 | 57 | |
| 20260510021749 | 81 | 0 | 0.9 | 0.0 | 0.00 | 0.00 | 0.00 | 56 | |
| 20260510020719 | 81 | 0 | 1.7 | 0.0 | 0.00 | 0.00 | 0.00 | 55 | |
| 20260510015719 | 81 | 0 | 1.7 | 0.0 | 0.00 | 0.00 | 0.00 | 53 | |
| 20260510014649 | 82 | 0 | 2.6 | 0.0 | 0.00 | 0.00 | 0.00 | 53 | |
| 20260510013619 | 83 | 0 | 0.9 | 0.0 | 0.00 | 0.00 | 0.00 | 54 | |
| 20260510012549 | 83 | 0 | 2.6 | 0.0 | 0.00 | 0.00 | 0.00 | 55 | |
| 20260510011549 | 83 | 0 | 0.9 | 0.0 | 0.00 | 0.00 | 0.00 | 54 | |
| 20260510010519 | 84 | 0 | 1.7 | 0.0 | 0.00 | 0.00 | 0.00 | 51 | |
| 20260510005519 | 85 | 0 | 0.9 | 0.0 | 0.00 | 0.00 | 0.00 | 49 | |
| 20260510004449 | 86 | 0 | 2.6 | 0.0 | 0.00 | 0.00 | 0.00 | 48 | |
| 20260510003449 | 87 | 0 | 0.9 | 0.0 | 0.00 | 0.00 | 0.00 | 48 | |
| 20260510002419 | 88 | 0 | 0.9 | 0.0 | 0.00 | 0.00 | 0.00 | 48 | |
| 20260510001349 | 90 | 0 | 2.6 | 0.0 | 0.00 | 0.00 | 0.00 | 46 | |
| 20260510000319 | 91 | 0 | 4.3 | 0.0 | 0.00 | 0.00 | 0.00 | 45 | |
| 20260509235249 | 92 | 0 | 1.7 | 0.0 | 0.00 | 0.00 | 0.00 | 45 | |
| 20260509234219 | 93 | 0 | 1.7 | 0.0 | 0.00 | 0.00 | 0.00 | 44 | |
| 20260509233149 | 93 | 0 | 1.7 | 0.0 | 0.00 | 0.00 | 0.00 | 43 | |
| 20260509232119 | 91 | 0 | 1.7 | 0.0 | 0.00 | 0.00 | 0.00 | 44 | |
| 20260509231049 | 91 | 0 | 0.9 | 0.0 | 0.00 | 0.00 | 0.00 | 45 | |
| 20260509230019 | 88 | 0 | 1.7 | 0.0 | 0.00 | 0.00 | 0.00 | 48 | |
| 20260509224949 | 89 | 0 | 2.6 | 0.0 | 0.00 | 0.00 | 0.00 | 48 | |
| 20260509223919 | 91 | 0 | 2.6 | 0.0 | 0.00 | 0.00 | 0.00 | 46 | |
| 20260509222849 | 89 | 0 | 4.3 | 0.0 | 0.00 | 0.00 | 0.00 | 47 | |
| 20260509221819 | 92 | 0 | 1.7 | 0.0 | 0.00 | 0.00 | 0.00 | 46 | |
| 20260509220819 | 90 | 0 | 1.7 | 0.0 | 0.00 | 0.00 | 0.00 | 48 | |
| 20260509215749 | 89 | 0 | 1.7 | 0.0 | 0.00 | 0.00 | 0.00 | 48 | |
| 20260509214719 | 91 | 0 | 3.5 | 0.0 | 0.00 | 0.00 | 0.00 | 46 | |
| 20260509213649 | 90 | 0 | 5.2 | 0.0 | 0.00 | 0.00 | 0.00 | 47 | |
| 20260509212619 | 90 | 0 | 2.6 | 0.0 | 0.00 | 0.00 | 0.00 | 47 | |
| 20260509211619 | 88 | 0 | 2.6 | 0.0 | 0.00 | 0.00 | 0.00 | 49 | |
| 20260509210619 | 91 | 0 | 3.5 | 0.0 | 0.00 | 0.00 | 0.00 | 47 | |
| 20260509205549 | 89 | 0 | 1.7 | 0.0 | 0.00 | 0.00 | 0.00 | 49 | |
| 20260509204519 | 87 | 0 | 2.6 | 0.0 | 0.00 | 0.00 | 0.00 | 51 | |
| 20260509203449 | 87 | 0 | 3.5 | 0.0 | 0.00 | 0.00 | 0.00 | 52 | |
| 20260509202449 | 87 | 0 | 2.6 | 0.0 | 0.00 | 0.00 | 0.00 | 51 | |
| 20260509201419 | 89 | 0 | 4.3 | 0.0 | 0.00 | 0.00 | 0.00 | 49 | |
| 20260509200419 | 86 | 0 | 0.9 | 0.0 | 0.00 | 0.00 | 0.00 | 52 | |
| 20260509195349 | 86 | 0 | 3.5 | 0.0 | 0.00 | 0.00 | 0.00 | 52 | |
| 20260509194319 | 86 | 0 | 1.7 | 0.0 | 0.00 | 0.00 | 0.00 | 53 | |
| 20260509193249 | 83 | 0 | 1.7 | 0.0 | 0.00 | 0.00 | 0.00 | 56 | |
| 20260509192249 | 84 | 0 | 2.6 | 0.0 | 0.00 | 0.00 | 0.00 | 55 | |
| 20260509191219 | 86 | 0 | 2.6 | 0.0 | 0.00 | 0.00 | 0.00 | 52 | |
| 20260509190149 | 85 | 0 | 0.0 | 0.0 | 0.00 | 0.00 | 0.00 | 53 |